DW8935 Weather Reports


Display with metric or nautical units.
time (UTC)temp
F
wind
direction
speed
MPH
gust
MPH
rain 1hr
in
rain 24hr
in
rain mn
in
humidity
%
barometer
mb
20260903190056 48 311 2.0 8.0 0.00 0.00 0.00 79 1018.7
20260903184554 48 284 2.0 7.0 0.00 0.00 0.00 79 1018.6
20260903181553 49 308 3.0 8.0 0.00 0.00 0.00 80 1018.6
20260903180050 49 310 1.0 8.0 0.00 0.00 0.00 80 1018.5
20260903174547 49 286 1.0 8.0 0.00 0.00 0.00 81 1018.5
20260903171552 49 309 1.0 6.0 0.00 0.00 0.00 81 1018.6
20260903170042 49 306 0.0 6.0 0.00 0.00 0.00 81 1018.8
20260903164544 49 302 2.0 6.0 0.00 0.00 0.00 81 1018.9
20260903161536 50 286 0.0 7.0 0.00 0.00 0.00 79 1019.1
20260903160054 50 313 1.0 6.0 0.00 0.00 0.00 78 1019.2
20260903154532 51 291 1.0 7.0 0.00 0.00 0.00 78 1019.3
20260903151531 51 314 0.0 7.0 0.00 0.00 0.00 78 1019.4
20260903150031 51 317 3.0 7.0 0.00 0.00 0.00 78 1019.4
20260903144528 51 311 3.0 7.0 0.00 0.00 0.00 78 1019.4
20260903141525 51 311 2.0 8.0 0.00 0.00 0.00 79 1019.5
20260903140022 51 328 1.0 7.0 0.00 0.00 0.00 79 1019.5
20260903134521 51 318 2.0 6.0 0.00 0.00 0.00 78 1019.6
20260903131520 52 324 2.0 7.0 0.00 0.00 0.00 77 1019.7
20260903130019 52 299 1.0 7.0 0.00 0.00 0.00 77 1019.6
20260903124518 52 320 3.0 8.0 0.00 0.00 0.00 77 1019.6
20260903121514 52 319 1.0 4.0 0.00 0.00 0.00 73 1019.4
20260903120013 52 323 1.0 5.0 0.00 0.00 0.00 73 1019.3
20260903114512 53 269 3.0 7.0 0.00 0.00 0.00 72 1019.1
20260903111509 54 290 1.0 6.0 0.00 0.00 0.00 70 1018.8
20260903110009 54 270 2.0 6.0 0.00 0.00 0.00 69 1018.8
20260903104507 54 252 3.0 12.0 0.00 0.00 0.00 69 1018.5
20260903101504 54 264 1.0 5.0 0.00 0.00 0.00 68 1018.1
20260903100002 55 239 1.0 7.0 0.00 0.00 0.00 68 1017.8
20260903094501 55 285 1.0 7.0 0.00 0.00 0.00 66 1017.6
20260903091556 56 236 3.0 9.0 0.00 0.00 0.00 66 1017.1
20260903090059 56 220 2.0 10.0 0.00 0.00 0.00 66 1016.9
20260903084555 57 265 3.0 11.0 0.00 0.00 0.00 65 1016.7
20260903081552 58 280 4.0 10.0 0.00 0.00 0.00 63 1016.3
20260903080103 58 216 4.0 10.0 0.00 0.00 0.00 62 1016.0
20260903074602 59 244 5.0 13.0 0.00 0.00 0.00 62 1015.9
20260903071547 60 241 6.0 15.0 0.00 0.00 0.00 59 1015.1
20260903070044 61 232 8.0 16.0 0.00 0.00 0.00 58 1015.0
20260903064545 62 257 6.0 14.0 0.00 0.00 0.00 57 1014.9
20260903061545 62 196 6.0 15.0 0.00 0.00 0.00 56 1014.6
20260903060038 62 213 7.0 19.0 0.00 0.00 0.00 55 1014.3
20260903054536 63 236 10.0 19.0 0.00 0.00 0.00 53 1014.1
20260903051535 63 233 8.0 15.0 0.00 0.00 0.00 54 1013.9
20260903050034 63 254 8.0 20.0 0.00 0.00 0.00 55 1013.7
20260903044532 63 243 7.0 20.0 0.00 0.00 0.00 57 1013.6
20260903041537 63 239 7.0 22.0 0.00 0.00 0.00 59 1013.3
20260903040026 63 250 5.0 20.0 0.00 0.00 0.00 63 1013.1
20260903034529 62 263 5.0 16.0 0.00 0.00 0.00 68 1013.0
20260903031519 58 248 3.0 12.0 0.00 0.00 0.00 77 1013.0
20260903030020 58 304 7.0 15.0 0.00 0.00 0.00 78 1013.2
20260903024519 58 278 8.0 15.0 0.00 0.00 0.00 80 1013.2
20260903021517 56 288 4.0 12.0 0.00 0.00 0.00 85 1012.7
20260903020017 56 273 6.0 14.0 0.00 0.00 0.00 84 1012.8
20260903014517 57 270 4.0 17.0 0.00 0.00 0.00 81 1012.6
20260903011514 57 221 5.0 10.0 0.00 0.00 0.00 86 1012.6
20260903010012 57 264 6.0 13.0 0.00 0.00 0.00 83 1012.5
20260903004514 57 244 4.0 12.0 0.00 0.00 0.00 83 1012.2
20260903001508 57 338 8.0 18.0 0.00 0.00 0.00 77 1011.9
20260903000005 60 246 7.0 18.0 0.00 0.00 0.00 69 1011.5
20260902234503 59 286 6.0 17.0 0.00 0.00 0.00 65 1011.3
20260902231607 58 264 7.0 18.0 0.00 0.00 0.00 66 1010.9
20260902230056 58 338 8.0 19.0 0.00 0.00 0.00 66 1010.8
20260902224604 58 282 5.0 21.0 0.00 0.00 0.00 66 1010.6
20260902223153 56 311 8.0 18.0 0.00 0.00 0.00 68 1010.5
20260902221549 55 323 8.0 19.0 0.00 0.00 0.00 70 1010.4
20260902220053 54 338 6.0 14.0 0.00 0.00 0.00 70 1010.2
20260902214546 54 333 6.0 18.0 0.00 0.00 0.00 69 1010.3
20260902213147 54 298 4.0 13.0 0.00 0.00 0.00 69 1010.1
20260902211549 53 24 7.0 14.0 0.00 0.00 0.00 69 1009.9
20260902210048 53 355 3.0 11.0 0.00 0.00 0.00 69 1009.7
20260902204544 53 336 3.0 8.0 0.00 0.00 0.00 68 1009.3
20260902203143 54 325 6.0 11.0 0.00 0.00 0.00 67 1009.1
20260902201545 54 317 7.0 14.0 0.00 0.00 0.00 66 1009.3
20260902200052 54 321 4.0 14.0 0.00 0.00 0.00 65 1009.5
20260902194541 54 325 5.0 11.0 0.00 0.00 0.00 65 1009.4
20260902193140 54 336 5.0 13.0 0.00 0.00 0.00 65 1009.4
20260902191549 54 312 5.0 13.0 0.00 0.00 0.00 66 1009.4